Regional Weather Roundup
Issued by NWS

Home | Current Version | Previous Version | Text Only | Print | Product List | Glossary On
Versions: 1 2 3 4 5 6 7 8 9 10 11 12 13 14 15 16 17 18 19 20 21 22 23 24 25 26 27 28 29 30 31 32 33 34 35 36 37 38 39 40 41 42 43 44 45 46 47 48 49 50
573
ASUS44 KLIX 160305
RWRLA
LOUISIANA WEATHER ROUNDUP
NATIONAL WEATHER SERVICE NEW ORLEANS LA
1000 PM CDT MON SEP 15 2014

NOTE: "FAIR" INDICATES FEW OR NO CLOUDS BELOW 12,000 FEET WITH NO
      SIGNIFICANT WEATHER AND/OR OBSTRUCTIONS TO VISIBILITY.
      SKY/WX - SKY CONDITION AND SIGNIFICANT WEATHER.
      TMP - AIR TEMPERATURE.    DP   - DEWPOINT TEMPERATURE.
      RH  - RELATIVE HUMIDITY.  PRES - PRESSURE.
      HX  - HEAT INDEX.         WCI  - WIND CHILL INDEX.

*  THESE STATIONS ARE NOT NWS OR FAA STATIONS AND ARE NOT UNDER
   NWS QUALITY CONTROL.

LAZ040-048-061>063-065-066-069-160400-
SOUTHEAST LOUISIANA

CITY           SKY/WX    TMP DP  RH WIND       PRES   REMARKS
N.O. AUDUBON     N/A     82  76  81 MISG        N/A
N.O. INTL ARPT MOCLDY    79  76  90 SW3       30.08F
N.O. LAKEFRONT MOCLDY    81  75  82 SW3       30.08F
N.O. DOWNTOWN* FAIR      82  72  69 S3        30.08F
SLIDELL        CLOUDY    79  74  84 NE6       30.09S
BATON ROUGE    MOCLDY    76  74  93 CALM      30.09R
BOOTHVILLE     CLOUDY    83  77  82 SW5       30.09R
BELLE CHASSE   MOCLDY    78  73  84 SW3       30.08S
BOGALUSA*      LGT RAIN  77  73  87 NW5       30.11S
GALLIANO*      NOT AVBL
NEW ROADS*     MOCLDY    78  73  87 W3        30.09S
GONZALES*      FAIR      76  76 100 CALM      30.08S
HAMMOND*       MOCLDY    79  73  83 CALM      30.11R
HOUMA*         PTCLDY    76  73  89 CALM      30.09R
PORT FOURCHON* CLEAR     82  77  83 CALM      30.12R

$$

LAZ041-044-053-054-160400-
SOUTHWEST LOUISIANA

CITY           SKY/WX    TMP DP  RH WIND       PRES   REMARKS
LAKE CHARLES   PTCLDY    79  75  87 E3        30.07R
LAFAYETTE      PTCLDY    76  75  97 CALM      30.08R
PATTERSON      PTCLDY    77  75  94 CALM      30.12R
SALT POINT       N/A     81  77  88 SE3       30.07S
NEW IBERIA     MOCLDY    76  74  93 CALM      30.09R
CHENAULT AIRPK MOCLDY    80  75  85 E6        30.09R

$$

LAZ027-028-160400-
CENTRAL LOUISIANA

CITY           SKY/WX    TMP DP  RH WIND       PRES   REMARKS
FORT POLK      MOCLDY    79  74  84 N7        30.09R
ALEXANDRIA INT MOCLDY    79  73  82 N7        30.07S
ALEXANDRIA     MOCLDY    79  74  84 CALM      30.09S

$$

LAZ001-002-160400-
NORTHWEST LOUISIANA

CITY           SKY/WX    TMP DP  RH WIND       PRES   REMARKS
SHREVEPORT     MOCLDY    77  70  79 E3        30.11S
BARKSDALE AFB  CLOUDY    74  70  86 E2        30.12R
DTN SHREVEPORT PTCLDY    73  70  90 CALM      30.12R

$$

LAZ014-016-160400-
NORTHEAST LOUISIANA

CITY           SKY/WX    TMP DP  RH WIND       PRES   REMARKS
MONROE         MOCLDY    75  71  87 NE3       30.11F
TALLULAH       MOCLDY    75  71  87 CALM      30.11R

$$




USA.gov is the U.S. government's official web portal to all federal, state and local government web resources and services.